Doha, Qatar

10:31 PM +03 on November 24, 2017 (GMT +0300)
Doha International

Weather History for OTBD - September, 2012

Change the Weather History Date:

Sunday, September 23, 2012

  Actual Average Record
Temperature  
Mean Temperature 93 °F -  
Max Temperature 102 °F 96 °F 107 °F (1997)
Min Temperature 84 °F 75 °F 78 °F (1997)
Cooling Degree Days 28    
Growing Degree Days 43 (Base 50)    
Moisture  
Dew Point 74 °F    
Average Humidity 56    
Maximum Humidity 75    
Minimum Humidity 20    
Precipitation  
Precipitation 0.00 in 0.00 in - ()
Sea Level Pressure  
Sea Level Pressure 29.72 in    
Wind  
Wind Speed 5 mph ()    
Max Wind Speed 17 mph    
Max Gust Speed -    
Visibility 4.3 miles    
Events      
Averages and records for this station are not official NWS values.
T = Trace of Precipitation, MM = Missing Value Source: Averaged Metar Reports

Daily Weather History Graph

Daily Weather History Graph

Search for Another Location

Airport or City:

Trip Planner

Search our weather history database for the weather conditions in past years. The results will help you decide how hot, cold, wet, or windy it might be!

Date:

Astronomy

Sep. 23, 2012 Rise Set
Actual Time 5:22 AM +03 5:28 PM +03
Civil Twilight 4:59 AM +03 5:51 PM +03
Nautical Twilight 4:33 AM +03 6:18 PM +03
Astronomical Twilight 4:06 AM +03 6:45 PM +03
Moon 12:38 PM +03 (9/23) 11:45 PM +03 (9/23)
Length of Visible Light 12h 51m
Length of Day
12h 06m
First Quarter, 56% of the Moon is Illuminated
Sep 23
First Quarter
Sep 30
Full
Oct 8
Last Quarter
Oct 15
New
Oct 22
First Quarter

Hourly Weather History & Observations

Time (+03) Temp. Heat Index Dew Point Humidity Pressure Visibility Wind Dir Wind Speed Gust Speed Precip Events Conditions
12:00 AM 89.6 °F 104.7 °F 78.8 °F 70% 29.74 in - North 4.6 mph - N/A   Clear
12:30 AM 89.6 °F 104.7 °F 78.8 °F 70% 29.74 in - North 3.5 mph - N/A   Clear
1:00 AM 87.8 °F 102.5 °F 78.8 °F 75% 29.71 in - North 3.5 mph - N/A   Clear
1:30 AM 87.8 °F 102.5 °F 78.8 °F 75% 29.71 in - Variable 1.2 mph - N/A   Clear
2:00 AM 87.8 °F 102.5 °F 78.8 °F 75% 29.71 in - Calm Calm - N/A   Clear
2:30 AM 87.8 °F 99.7 °F 77.0 °F 70% 29.71 in - Variable 2.3 mph - N/A   Clear
3:00 AM 87 °F - 77 °F 66% 29.72 in 6 mi 2.3 mph - -  
3:00 AM 86.0 °F 96.9 °F 77.0 °F 74% 29.71 in - Variable 2.3 mph - N/A   Clear
3:30 AM 86.0 °F 96.9 °F 77.0 °F 74% 29.71 in 5.6 mi SW 3.5 mph - N/A   Unknown
4:00 AM 86.0 °F 95.1 °F 75.2 °F 70% 29.71 in 5.0 mi Variable 2.3 mph - N/A   Unknown
4:30 AM 84.2 °F 92.3 °F 75.2 °F 74% 29.74 in 5.0 mi SW 4.6 mph - N/A   Unknown
5:00 AM 86.0 °F 95.1 °F 75.2 °F 70% 29.74 in 5.0 mi Variable 2.3 mph - N/A   Unknown
5:30 AM 86.0 °F 95.1 °F 75.2 °F 70% 29.74 in 4.3 mi SW 3.5 mph - N/A   Unknown
6:00 AM 86.0 °F 93.4 °F 73.4 °F 66% 29.74 in 4.3 mi WSW 4.6 mph - N/A   Unknown
6:30 AM 87.8 °F 93.8 °F 71.6 °F 58% 29.77 in 4.3 mi WSW 4.6 mph - N/A   Unknown
7:00 AM 91.4 °F 96.8 °F 69.8 °F 49% 29.77 in 4.3 mi SW 5.8 mph - N/A   Unknown
7:30 AM 91.4 °F 96.8 °F 69.8 °F 49% 29.77 in 3.7 mi SW 5.8 mph - N/A   Unknown
8:00 AM 93.2 °F 97.7 °F 68.0 °F 44% 29.77 in 3.7 mi SW 5.8 mph - N/A   Unknown
8:30 AM 95.0 °F 96.0 °F 62.6 °F 34% 29.77 in 3.7 mi WSW 4.6 mph - N/A   Unknown
9:00 AM 97 °F - 60 °F 20% 29.80 in 4 mi SSW 3.5 mph - -   Smoke
9:00 AM 96.8 °F 97.1 °F 60.8 °F 30% 29.77 in 3.7 mi SSW 3.5 mph - N/A   Unknown
9:30 AM 100.4 °F 100.2 °F 59.0 °F 25% 29.77 in 3.7 mi South 3.5 mph - N/A   Unknown
10:00 AM 98.6 °F 98.5 °F 59.0 °F 27% 29.77 in 3.7 mi SE 5.8 mph - N/A   Unknown
10:30 AM 100.4 °F 100.2 °F 59.0 °F 25% 29.77 in 4.3 mi SE 6.9 mph - N/A   Unknown
11:00 AM 100.4 °F 99.7 °F 57.2 °F 24% 29.74 in 5.0 mi SE 5.8 mph - N/A   Unknown
11:30 AM 100.4 °F 104.9 °F 66.2 °F 33% 29.74 in - East 8.1 mph - N/A   Clear
12:00 PM 100.4 °F 104.9 °F 66.2 °F 33% 29.71 in - East 9.2 mph - N/A   Clear
12:30 PM 100.4 °F 102.4 °F 62.6 °F 29% 29.71 in - ESE 12.7 mph - N/A   Clear
1:00 PM 100.4 °F 107.8 °F 69.8 °F 37% 29.71 in - East 12.7 mph - N/A   Clear
1:30 PM 100.4 °F 109.3 °F 71.6 °F 39% 29.71 in - ESE 12.7 mph - N/A   Clear
2:00 PM 96.8 °F 112.2 °F 77.0 °F 53% 29.68 in - East 17.3 mph - N/A   Clear
2:30 PM 96.8 °F 114.8 °F 78.8 °F 56% 29.68 in - East 13.8 mph - N/A   Clear
3:00 PM 95.0 °F 112.2 °F 78.8 °F 59% 29.68 in - East 12.7 mph - N/A   Clear
3:30 PM 95.0 °F 112.2 °F 78.8 °F 59% 29.68 in - ESE 12.7 mph - N/A   Clear
4:00 PM 95.0 °F 112.2 °F 78.8 °F 59% 29.68 in - ESE 12.7 mph - N/A   Clear
4:30 PM 93.2 °F 110.2 °F 78.8 °F 63% 29.68 in - East 11.5 mph - N/A   Clear
5:00 PM 93.2 °F 110.2 °F 78.8 °F 63% 29.68 in - ESE 10.4 mph - N/A   Clear
5:30 PM 93.2 °F 110.2 °F 78.8 °F 63% 29.68 in - East 9.2 mph - N/A   Clear
6:00 PM 93.2 °F 110.2 °F 78.8 °F 63% 29.68 in - East 6.9 mph - N/A   Clear
6:30 PM 93.2 °F 110.2 °F 78.8 °F 63% 29.71 in 5.6 mi ENE 4.6 mph - N/A   Unknown
7:00 PM 91.4 °F 107.2 °F 78.8 °F 66% 29.71 in 4.3 mi ENE 6.9 mph - N/A   Unknown
7:30 PM 91.4 °F 107.2 °F 78.8 °F 66% 29.71 in 4.3 mi ENE 5.8 mph - N/A   Unknown
8:00 PM 91.4 °F 107.2 °F 78.8 °F 66% 29.71 in 4.3 mi NE 5.8 mph - N/A   Unknown
8:30 PM 91.4 °F 107.2 °F 78.8 °F 66% 29.74 in 4.3 mi North 5.8 mph - N/A   Unknown
9:00 PM 90 °F - 79 °F 63% 29.74 in 4 mi North 5.8 mph - -   Haze
9:00 PM 91.4 °F 107.2 °F 78.8 °F 66% 29.74 in 4.3 mi North 5.8 mph - N/A   Unknown
9:30 PM 91.4 °F 105.1 °F 77.0 °F 63% 29.71 in 4.3 mi North 6.9 mph - N/A   Unknown
10:00 PM 89.6 °F 102.2 °F 77.0 °F 66% 29.71 in 3.7 mi North 5.8 mph - N/A   Unknown
10:30 PM 89.6 °F 102.2 °F 77.0 °F 66% 29.71 in 3.7 mi North 4.6 mph - N/A   Unknown
11:00 PM 89.6 °F 102.2 °F 77.0 °F 66% 29.71 in 3.7 mi North 4.6 mph - N/A   Unknown
11:30 PM 89.6 °F 102.2 °F 77.0 °F 66% 29.71 in 3.7 mi ENE 3.5 mph - N/A   Unknown